Regional Weather Roundup
Issued by NWS

Home | Current Version | Previous Version | Graphics & Text | Print | Product List | Glossary Off
Versions: 1 2 3 4 5 6 7 8 9 10 11 12 13 14 15 16 17 18 19 20 21 22 23 24 25 26 27 28 29 30 31 32 33 34 35 36 37 38 39 40 41 42 43 44 45 46 47 48 49 50

000
ASUS43 KMPX 261410
RWRMN
WEATHER ROUNDUP FOR MINNESOTA
NATIONAL WEATHER SERVICE TWIN CITIES/CHANHASSEN MN
900 AM CDT WED APR 26 2017


NOTE: "FAIR" INDICATES FEW OR NO CLOUDS BELOW 12,000 FEET WITH NO
SIGNIFICANT WEATHER AND/OR OBSTRUCTIONS TO VISIBILITY. N/A MEANS
CURRENT SKY AND/OR WEATHER CONDITIONS ARE NOT AVAILABLE.

MNZ060>063-068>070-261500-
   Twin Cities Metro

CITY           SKY/WX    TMP DP  RH WIND       PRES   REMARKS
TWIN CITIES    LGT RAIN  36  33  89 N15G21    29.51R
ST PAUL        LGT RAIN  36  35  96 N12       29.51S
CRYSTAL        LGT RAIN  35  31  85 N10       29.51S WCI  27
BLAINE         LGT RAIN  36  36 100 N12       29.51S FOG
LAKEVILLE      DRIZZLE   36  36 100 N14       29.50R
EDEN PRAIRIE   LGT RAIN  37  33  85 N12       29.50S
SOUTH ST PAUL  DRIZZLE   36  36 100 N7        29.50R
LAKE ELMO      MIX PCPN  36  34  93 N9G16     29.50R
$$
MNZ001>005-007-008-013>017-022>024-027-028-261500-
   Northwest Minnesota

CITY           SKY/WX    TMP DP  RH WIND       PRES   REMARKS
BEMIDJI        LGT SNOW  24  22  91 N10       29.72S WCI  14
HALLOCK        CLOUDY    30  23  74 NE16G24   29.88S WCI  19
ROSEAU         CLOUDY    28  21  74 NE21      29.85S WCI  15
WARROAD        CLOUDY    27  23  86 NE22G28   29.85F WCI  12
THIEF RVR FALL FLURRIES  27  23  85 NE18      29.80S WCI  14
CROOKSTON      LGT SNOW  28  27  93 NE12G21   29.82S WCI  18
FOSSTON        FLURRIES  25  23  93 N14G22    29.76S WCI  13
DETROIT LAKES  LGT SNOW  28  27  93 NE7       29.71R WCI  21
MOORHEAD       LGT SNOW  28  27  93 N8        29.76S VSB 3/4 WCI  20
PARK RAPIDS    LGT SNOW  27  21  78 N15G21    29.67S WCI  15
MAHNOMEN       CLOUDY    28  24  88 NE6       29.73R WCI  21
$$
MNZ006-009>011-018-025>026-261500-
   North Central Minnesota

CITY           SKY/WX    TMP DP  RH WIND       PRES   REMARKS
BAUDETTE       FLURRIES  25  19  78 NE20      29.81F WCI  11
FLAG ISLAND    CLOUDY    27  19  74 NE23G30   29.87F WCI  12
INTL FALLS     LGT SNOW  24  19  81 NE12G25   29.78F VSB 1   WCI  13
WASKISH        LGT SNOW  25  21  86 NE15G22   29.77S WCI  12
BIG FORK       LGT SNOW  25  21  86 N9G17     29.71F WCI  15
LONGVILLE      MIX PCPN  27  25  93 N6        29.65F WCI  20
GRAND RAPIDS   LGT SNOW  26  24  92 N8G16     29.66F FOG     WCI  18
CRANE LAKE     LGT SNOW  23  21  93 N7        29.77F WCI  15
ORR            MIX PCPN  23  19  86 CALM      29.69F
COOK           LGT SNOW  25  21  86 NE9G18    29.69F WCI  15
WALKER         LGT SNOW  25  22  89 N7        29.68F WCI  17
$$
MNZ012-019>021-037-261500-
   Northeast Minnesota

CITY           SKY/WX    TMP DP  RH WIND       PRES   REMARKS
DULUTH         LGTSLEET  32  30  92 NE13      29.58F VSB 3/4 WCI  22
ELY            LGT SNOW  25  23  93 NE12G21   29.66F WCI  14
HIBBING        MIX PCPN  25  24  96 N12       29.64F FOG     WCI  14
EVELETH        LGT SNOW  28  24  87 NE8       29.65F WCI  19
DULUTH HARBOR  MIX PCPN  34  34 100 NE30G36   29.61F WCI  20
TWO HARBORS    LGT SNOW  36  30  80 NE5       29.59F
SILVER BAY     RAIN      32  30  93 NE7       29.60F WCI  26
GRAND MARAIS     N/A     32  28  85 NE9       29.64F WCI  24
G MARAIS ARPRT LGT SNOW  25  19  80 N6        29.61F WCI  18
$$
MNZ029>031-032-039>041-046>048-054>057-064-261500-
   West Central Minnesota

CITY           SKY/WX    TMP DP  RH WIND       PRES   REMARKS
FERGUS FALLS   LGT SNOW  30  30 100 NE9       29.69S WCI  22
WHEATON        LGT SNOW  30  28  93 NW18G26   29.71F WCI  18
MORRIS         CLOUDY    34  32  93 N15       29.65R WCI  24
ALEXANDRIA     CLOUDY    32  29  88 N17       29.64S WCI  21
ELBOW LAKE     LGT SNOW  32  31  98 N10       29.67S WCI  23
WADENA         MIX PCPN  27  27 100 N8        29.65R WCI  18
GLENWOOD       MIX PCPN  30  30 100 N9        29.63S WCI  22
APPLETON       CLOUDY    36  34  93 N17       29.65S
BENSON         CLOUDY    37  30  75 N13       29.65S
ORTONVILLE     CLOUDY    32  28  86 N17G23    29.67S FOG     WCI  21
MADISON        CLOUDY    36  36 100 N17G23    29.66S
WILLMAR        CLOUDY    34  34 100 N16       29.61F WCI  23
$$
MNZ033>034-036-042>043-049>051-058-059-261500-
   Central Minnesota

CITY           SKY/WX    TMP DP  RH WIND       PRES   REMARKS
ST CLOUD       LGT RAIN  35  33  92 N9        29.58R WCI  28
SAUK CENTRE    LGT SNOW  31  30  93 N14       29.62S WCI  21
PAYNESVILLE    DRIZZLE   33  33 100 N10G18    29.60S WCI  25
AITKIN         MIX PCPN  32  27  80 N9G16     29.59F WCI  24
PINE RIVER     LGT SNOW  28  27  93 N8        29.67S WCI  20
BRAINERD       FRZ RAIN  30  28  92 NE13      29.61S FOG     WCI  20
STAPLES        LGT SNOW  28  28 100 CALM      29.64R
LONG PRAIRIE   CLOUDY    30  30 100 CALM      29.62R
LITTLE FALLS   MIX PCPN  32  30  93 N6        29.61R WCI  26
LITCHFIELD     DRIZZLE   36  36 100 N15       29.58R
BUFFALO        RAIN      35  32  90 N10G20    29.56R WCI  27
MAPLE LAKE     DRIZZLE   36  35  95 N10       29.57R
HUTCHINSON     CLOUDY    37  36  96 N13G20    29.56S
$$
MNZ037-044-045-052-053-261500-
   East Central Minnesota

CITY           SKY/WX    TMP DP  RH WIND       PRES   REMARKS
PRINCETON      LGT RAIN  36  34  93 N9        29.56S
MORA           MIX PCPN  32  30  93 NE7       29.57S WCI  26
CAMBRIDGE      MIX PCPN  36  32  87 N7        29.52S
RUSH CITY      RAIN      33  32  94 N8G17     29.53S WCI  27
MOOSE LAKE     LGT SNOW  32  32 100 NE15G21   29.55F WCI  22
HINCKLEY       MIX PCPN  34  32  93 NE13G21   29.54F WCI  25
CLOQUET        LGT SNOW  30  28  93 N5        29.58F WCI  25
MCGREGOR       CLOUDY    30  28  93 N7        29.60S WCI  23
$$
MNZ071>073-080-081-089-090-097-098-261500-
   Southwest Minnesota

CITY           SKY/WX    TMP DP  RH WIND       PRES   REMARKS
MONTEVIDEO     CLOUDY    34  34 100 N14       29.63F WCI  24
GRANITE FALLS  CLOUDY    37  34  90 NW16G24   29.63F
CANBY          CLOUDY    34  33  96 NW16      29.66S WCI  23
MARSHALL       CLOUDY    34  33  96 N24       29.61F WCI  21
REDWOOD FALLS  CLOUDY    35  33  92 NW12G22   29.59S FOG     WCI  27
OLIVIA         CLOUDY    36  32  87 N12       29.58F
PIPESTONE      MIX PCPN  34  30  86 N12G24    29.61S WCI  25
WINDOM         LGT RAIN  36  34  93 NW20G29   29.57S
WORTHINGTON    CLOUDY    35  33  92 N18       29.59R WCI  24
JACKSON        CLOUDY    34  34 100 NW21G30   29.56R FOG     WCI  22
TRACY          CLOUDY    35  34  96 NW20G26   29.60F WCI  24
SLAYTON        CLOUDY    33  32  96 NW20G25   29.60S WCI  21
$$
MNZ065>067-074>077-082>085-091>093-261500-
   South Central Minnesota

CITY           SKY/WX    TMP DP  RH WIND       PRES   REMARKS
MANKATO        LGT RAIN  37  36  96 NW18      29.51F
NEW ULM        CLOUDY    36  36 100 NW15      29.55R FOG
ST JAMES       CLOUDY    36  36 100 NW23G29   29.56R
FAIRMONT       CLOUDY    37  35  92 NW21G29   29.54R
GLENCOE        CLOUDY    36  36 100 N14G20    29.54S FOG
FARIBAULT      LGT RAIN  36  36 100 NW10G16   29.50R
OWATONNA       DRIZZLE   37  36  93 NW16      29.48R
WASECA         CLOUDY    36  34  93 N14       29.50S FOG
ALBERT LEA     CLOUDY    39  39 100 N15G23    29.46R FOG
$$
MNZ078>079-086>088-094>096-261500-
   Southeast Minnesota

CITY           SKY/WX    TMP DP  RH WIND       PRES   REMARKS
ROCHESTER      LGT RAIN  44  44 100 NW20      29.41R FOG
RED WING       DRIZZLE   39  37  93 NW6       29.45S
STANTON        DRIZZLE   38  36  89 N13       29.46S
DODGE CENTER   DRIZZLE   39  39 100 NW16      29.44R
WINONA         DRIZZLE   50  48  93 NW12      29.38S
AUSTIN         DRIZZLE   41  39  93 NW16G23   29.44R
PRESTON        LGT RAIN  50  48  95 N10       29.39R VSB 1/4
$$
ABBREVIATIONS USED IN REMARKS
   TC - TEMPERATURES IN CELSIUS
  WCI - WIND CHILL INDEX
   HX - HEAT INDEX
  VSB - VISIBILITY
$$




USA.gov is the U.S. government's official web portal to all federal, state and local government web resources and services.